When you browse on this site, cookies collect data to enhance your experience and personalize the content and advertising you see.
Visit our Privacy Policy to learn more. By continuing to use the site, you agree to this use of cookies and data.
  • In Latvia
  • List of Countries
  • For 7 days
  • Water Temperature
  • Weather Map
  • Weather Widgets
  • user-avatar
    Login

    Hourly Weather Gacpary

    Today, 22 February, Saturday

    Time Temperature Precipitation Wind Pressure Humidity
    00:00 0°C° 0 mm 4 mps 754 mmHg 88%
    01:00 -1°C° 0 mm 4 mps 754 mmHg 90%
    02:00 -1°C° 0 mm 4 mps 754 mmHg 90%
    03:00 -1°C° 0 mm 4 mps 754 mmHg 89%
    04:00 -1°C° 0 mm 4 mps 753 mmHg 89%
    05:00 -1°C° 0 mm 4 mps 753 mmHg 87%
    06:00 -1°C° 0 mm 5 mps 753 mmHg 84%
    07:00 -1°C° 0 mm 5 mps 753 mmHg 81%
    08:00 -1°C° 0 mm 6 mps 753 mmHg 74%
    09:00 +2°C° 0 mm 7 mps 752 mmHg 67%
    10:00 +2°C° 0 mm 8 mps 751 mmHg 59%
    11:00 +4°C° 0 mm 8 mps 750 mmHg 59%
    12:00 +3°C° 0 mm 9 mps 750 mmHg 59%
    13:00 +5°C° 0 mm 10 mps 749 mmHg 59%
    14:00 +5°C° 0 mm 9 mps 748 mmHg 57%
    15:00 +5°C° 0 mm 9 mps 747 mmHg 55%
    16:00 +6°C° 0 mm 9 mps 746 mmHg 53%
    17:00 +6°C° 0 mm 9 mps 746 mmHg 54%
    18:00 +6°C° 0 mm 9 mps 746 mmHg 55%
    19:00 +6°C° 0 mm 9 mps 745 mmHg 56%
    20:00 +6°C° 0 mm 9 mps 745 mmHg 56%
    21:00 +6°C° 0 mm 9 mps 745 mmHg 56%
    22:00 +6°C° 0 mm 10 mps 744 mmHg 57%
    23:00 +6°C° 0 mm 10 mps 744 mmHg 61%

    Tomorrow, 23 February, Sunday

    Time Temperature Precipitation Wind Pressure Humidity
    00:00 +6°C° 0 mm 10 mps 744 mmHg 65%
    01:00 +6°C° 0 mm 10 mps 745 mmHg 69%
    02:00 +5°C° 0.9 mm 9 mps 744 mmHg 74%
    03:00 +3°C° 0.9 mm 9 mps 744 mmHg 79%
    04:00 +2°C° 0.9 mm 8 mps 744 mmHg 84%
    05:00 +2°C° 0.1 mm 8 mps 744 mmHg 78%
    06:00 +3°C° 0.1 mm 7 mps 745 mmHg 73%
    07:00 +3°C° 0.1 mm 7 mps 745 mmHg 68%
    08:00 +2°C° 0 mm 8 mps 745 mmHg 68%
    09:00 +2°C° 0 mm 8 mps 745 mmHg 68%
    10:00 +2°C° 0 mm 9 mps 745 mmHg 67%
    11:00 +2°C° 0.1 mm 9 mps 744 mmHg 69%
    12:00 +2°C° 0.1 mm 8 mps 744 mmHg 71%
    13:00 +2°C° 0.1 mm 8 mps 744 mmHg 73%
    14:00 +3°C° 0.1 mm 7 mps 742 mmHg 79%
    15:00 +2°C° 0.1 mm 6 mps 741 mmHg 86%
    16:00 +2°C° 0.1 mm 5 mps 740 mmHg 92%
    17:00 +3°C° 1.5 mm 4 mps 738 mmHg 93%
    18:00 +4°C° 1.5 mm 2 mps 737 mmHg 95%
    19:00 +5°C° 1.5 mm 1 mps 736 mmHg 96%
    20:00 +3°C° 0.8 mm 2 mps 735 mmHg 96%
    21:00 +2°C° 0.8 mm 3 mps 734 mmHg 96%
    22:00 +2°C° 0.8 mm 3 mps 733 mmHg 96%
    23:00 +1°C° 0.6 mm 5 mps 735 mmHg 95%

    Day after tomorrow, 24 February, Monday

    Time Temperature Precipitation Wind Pressure Humidity
    00:00 -1°C° 0.6 mm 6 mps 737 mmHg 94%
    01:00 -1°C° 0.6 mm 8 mps 738 mmHg 94%
    02:00 -1°C° 0.2 mm 8 mps 740 mmHg 87%
    03:00 -1°C° 0.2 mm 9 mps 741 mmHg 81%
    04:00 0°C° 0.2 mm 9 mps 742 mmHg 75%
    05:00 0°C° 0 mm 9 mps 743 mmHg 77%
    06:00 -1°C° 0 mm 8 mps 744 mmHg 80%
    07:00 -1°C° 0 mm 8 mps 745 mmHg 82%
    08:00 0°C° 0 mm 8 mps 746 mmHg 81%
    09:00 0°C° 0 mm 8 mps 747 mmHg 79%
    10:00 0°C° 0 mm 7 mps 747 mmHg 77%
    11:00 0°C° 0 mm 7 mps 748 mmHg 75%
    12:00 +2°C° 0 mm 7 mps 748 mmHg 72%
    13:00 +2°C° 0 mm 7 mps 748 mmHg 69%
    14:00 +2°C° 0 mm 6 mps 748 mmHg 70%
    15:00 +2°C° 0 mm 6 mps 747 mmHg 71%
    16:00 +2°C° 0 mm 6 mps 747 mmHg 72%
    17:00 +2°C° 0 mm 5 mps 747 mmHg 74%
    18:00 +3°C° 0 mm 4 mps 747 mmHg 75%
    19:00 +3°C° 0 mm 3 mps 746 mmHg 76%
    20:00 +2°C° 0 mm 3 mps 746 mmHg 76%
    21:00 +1°C° 0 mm 4 mps 745 mmHg 76%
    22:00 +1°C° 0 mm 4 mps 744 mmHg 76%
    23:00 +1°C° 0.1 mm 5 mps 743 mmHg 79%

    25 February, Tuesday

    Time Temperature Precipitation Wind Pressure Humidity
    00:00 +1°C° 0.1 mm 5 mps 742 mmHg 82%
    01:00 +1°C° 0.1 mm 6 mps 741 mmHg 85%
    02:00 +2°C° 0.9 mm 7 mps 740 mmHg 85%
    03:00 +3°C° 0.9 mm 7 mps 739 mmHg 86%
    04:00 +2°C° 0.9 mm 8 mps 738 mmHg 87%
    05:00 +4°C° 0.4 mm 8 mps 738 mmHg 87%
    06:00 +5°C° 0.4 mm 8 mps 737 mmHg 88%
    07:00 +6°C° 0.4 mm 8 mps 737 mmHg 88%
    08:00 +6°C° 0 mm 8 mps 737 mmHg 86%
    09:00 +7°C° 0 mm 8 mps 737 mmHg 84%
    10:00 +7°C° 0 mm 8 mps 737 mmHg 81%
    11:00 +9°C° 0.1 mm 8 mps 736 mmHg 77%
    12:00 +9°C° 0.1 mm 8 mps 736 mmHg 73%
    13:00 +10°C° 0.1 mm 7 mps 736 mmHg 69%
    14:00 +10°C° 0.1 mm 7 mps 735 mmHg 70%
    15:00 +10°C° 0.1 mm 7 mps 735 mmHg 71%
    16:00 +9°C° 0.1 mm 6 mps 734 mmHg 72%
    17:00 +9°C° 0.1 mm 6 mps 734 mmHg 76%
    18:00 +8°C° 0.1 mm 7 mps 733 mmHg 80%
    19:00 +8°C° 0.1 mm 7 mps 733 mmHg 84%
    20:00 +6°C° 1.1 mm 7 mps 733 mmHg 84%
    21:00 +5°C° 1.1 mm 6 mps 733 mmHg 84%
    22:00 +4°C° 1.1 mm 6 mps 733 mmHg 83%
    23:00 +3°C° 0.1 mm 5 mps 733 mmHg 80%

    26 February, Wednesday

    Time Temperature Precipitation Wind Pressure Humidity
    00:00 +4°C° 0.1 mm 4 mps 734 mmHg 77%
    01:00 +4°C° 0.1 mm 4 mps 734 mmHg 73%
    02:00 +3°C° 0 mm 4 mps 734 mmHg 76%
    03:00 +1°C° 0 mm 4 mps 733 mmHg 78%
    04:00 +1°C° 0 mm 4 mps 733 mmHg 81%
    05:00 +1°C° 0 mm 4 mps 733 mmHg 81%
    06:00 +1°C° 0 mm 4 mps 733 mmHg 82%
    07:00 0°C° 0 mm 4 mps 733 mmHg 82%
    08:00 +3°C° 0 mm 4 mps 733 mmHg 75%
    09:00 +3°C° 0 mm 5 mps 733 mmHg 69%
    10:00 +5°C° 0 mm 5 mps 733 mmHg 62%
    11:00 +5°C° 0 mm 5 mps 732 mmHg 61%
    12:00 +6°C° 0 mm 5 mps 732 mmHg 60%
    13:00 +6°C° 0 mm 5 mps 732 mmHg 60%
    14:00 +6°C° 0 mm 5 mps 732 mmHg 61%
    15:00 +6°C° 0 mm 4 mps 732 mmHg 62%
    16:00 +7°C° 0 mm 3 mps 731 mmHg 62%
    17:00 +5°C° 0.2 mm 4 mps 732 mmHg 67%
    18:00 +4°C° 0.2 mm 4 mps 732 mmHg 71%
    19:00 +4°C° 0.2 mm 4 mps 732 mmHg 75%
    20:00 +3°C° 0 mm 4 mps 733 mmHg 77%
    21:00 +1°C° 0 mm 4 mps 733 mmHg 79%
    22:00 +1°C° 0 mm 4 mps 733 mmHg 81%
    23:00 0°C° 0 mm 5 mps 734 mmHg 85%

    27 February, Thursday

    Time Temperature Precipitation Wind Pressure Humidity
    00:00 0°C° 0 mm 5 mps 734 mmHg 88%
    01:00 -1°C° 0 mm 6 mps 735 mmHg 91%
    02:00 -1°C° 0 mm 6 mps 735 mmHg 89%
    03:00 0°C° 0 mm 5 mps 736 mmHg 88%
    04:00 0°C° 0 mm 5 mps 736 mmHg 86%
    05:00 -1°C° 0 mm 5 mps 737 mmHg 86%
    06:00 -1°C° 0 mm 5 mps 737 mmHg 86%
    07:00 -3°C° 0 mm 6 mps 738 mmHg 86%
    08:00 -2°C° 0.1 mm 6 mps 739 mmHg 85%
    09:00 -2°C° 0.1 mm 6 mps 739 mmHg 84%
    10:00 -2°C° 0.1 mm 6 mps 740 mmHg 84%
    11:00 -1°C° 0.1 mm 7 mps 740 mmHg 79%
    12:00 -1°C° 0.1 mm 7 mps 741 mmHg 75%
    13:00 0°C° 0.1 mm 7 mps 741 mmHg 71%
    14:00 -1°C° 0.1 mm 7 mps 742 mmHg 69%
    15:00 -1°C° 0.1 mm 7 mps 742 mmHg 67%
    16:00 -1°C° 0.1 mm 7 mps 743 mmHg 65%
    17:00 -2°C° 0 mm 6 mps 743 mmHg 68%
    18:00 -1°C° 0 mm 4 mps 744 mmHg 72%
    19:00 -1°C° 0 mm 3 mps 744 mmHg 75%
    20:00 -1°C° 0 mm 3 mps 744 mmHg 76%
    21:00 -1°C° 0 mm 3 mps 745 mmHg 77%
    22:00 -1°C° 0 mm 3 mps 745 mmHg 78%
    23:00 -1°C° 0 mm 3 mps 745 mmHg 79%
    Show more